NAVSTAR 22 (USA 66) 1 20959U 90103A 09183.54254834 -.00000076 00000-0 10000-3 0 3121 2 20959 055.2036 282.3750 0134150 293.7466 064.8828 02.00549686136215 NAVSTAR 23 (USA 71) 1 21552U 91047A 09183.25042085 +.00000066 +00000-0 +10000-3 0 03319 2 21552 054.4638 220.3913 0067649 321.4521 038.1413 02.00563013131798 NAVSTAR 24 (USA 79) 1 21890U 92009A 09182.75542667 -.00000086 00000-0 10000-3 0 3333 2 21890 055.5810 032.1372 0115243 290.6178 068.1974 02.00566740127165 NAVSTAR 26 (USA 83) 1 22014U 92039A 09183.43976827 -.00000103 +00000-0 +10000-3 0 02294 2 22014 056.8798 340.7198 0202278 058.1974 303.7538 02.00421549117949 NAVSTAR 27 (USA 84) 1 22108U 92058A 09182.94661705 -.00000085 +00000-0 +10000-3 0 01377 2 22108 055.8449 034.2200 0214954 269.5799 088.0033 02.00551630123115 NAVSTAR 33 (USA 92) 1 22700U 93042A 09183.47499190 -.00000082 00000-0 10000-3 0 4993 2 22700 055.9589 035.5857 0204186 085.4332 276.9505 02.00568705117289 NAVSTAR 34 (USA 94) 1 22779U 93054A 09184.06559004 -.00000071 00000-0 10000-3 0 252 2 22779 054.2356 091.9123 0095795 075.4888 285.5784 02.00578299116058 NAVSTAR 35 (USA 96) 1 22877U 93068A 09184.11083417 .00000073 00000-0 10000-3 0 8059 2 22877 053.8707 217.7297 0085322 026.7715 333.7418 02.00553110114946 NAVSTAR 36 (USA 100) 1 23027U 94016A 09184.31444539 .00000034 00000-0 10000-3 0 8236 2 23027 053.5097 154.7941 0061930 283.3998 075.8815 02.00559871112259 NAVSTAR 37 (USA 117) 1 23833U 96019A 09184.33066849 .00000025 00000-0 10000-3 0 155 2 23833 053.0821 150.9031 0118456 051.4378 309.5799 02.00567451 97235 NAVSTAR 38 (USA 126) 1 23953U 96041A 09184.25109407 -.00000064 00000-0 10000-3 0 4699 2 23953 054.8779 278.8305 0084669 033.3342 327.2276 02.00569941 95029 NAVSTAR 39 (USA 128) 1 24320U 96056A 09183.10463614 -.00000065 00000-0 10000-3 0 2026 2 24320 054.5669 095.0557 0113395 081.7022 279.5842 02.00574130 93664 NAVSTAR 43 (USA 132) 1 24876U 97035A 09184.20154638 -.00000104 00000-0 10000-3 0 9846 2 24876 056.9992 340.8304 0039056 092.0643 268.3834 02.00561899 87557 NAVSTAR 44 (USA 134) 1 25030U 97067A 09183.83175472 -.00000078 00000-0 10000-3 0 8918 2 25030 056.6689 041.0062 0106184 172.6182 187.5977 02.00567488 85447 NAVSTAR 46 (USA 145) 1 25933U 99055A 09183.97131145 .00000078 00000-0 10000-3 0 4435 2 25933 050.9576 205.1311 0092780 039.3845 321.3426 02.00561015 71365 NAVSTAR 47 (USA 150) 1 26360U 00025A 09183.57142683 -.00000064 00000-0 10000-3 0 5374 2 26360 053.9442 276.0566 0036761 077.7338 282.7161 02.00573871 67054 NAVSTAR 48 (USA 151) 1 26407U 00040A 09182.91491241 -.00000058 +00000-0 +10000-3 0 04830 2 26407 055.4054 099.2728 0151338 244.7810 113.6419 02.00566649065710 NAVSTAR 49 (USA 154) 1 26605U 00071A 09184.00846433 -.00000105 00000-0 10000-3 0 4870 2 26605 056.6275 339.7078 0047101 237.9814 121.5545 02.00571058 63332 NAVSTAR 50 (USA 156) 1 26690U 01004A 09183.88162427 -.00000068 00000-0 10000-3 0 3754 2 26690 053.9645 279.1299 0107047 222.9002 136.2957 02.00571537 61743 NAVSTAR 51 (USA 166) 1 27663U 03005A 09183.73228767 -.00000063 00000-0 10000-3 0 7414 2 27663 055.5088 098.7750 0054175 338.6926 021.0788 02.00575835 47093 NAVSTAR 52 (USA 168) 1 27704U 03010A 09183.29510080 .00000067 00000-0 10000-3 0 6354 2 27704 053.5080 218.5158 0155118 212.7713 146.3281 02.00570703 45870 NAVSTAR 53 (USA 175) 1 28129U 03058A 09183.42400754 -.00000072 +00000-0 +10000-3 0 02576 2 28129 053.8309 279.4670 0052995 252.4132 107.0426 02.00565104040586 NAVSTAR 54 (USA 177) 1 28190U 04009A 09184.36899895 .00000049 00000-0 10000-3 0 1957 2 28190 054.8634 161.6770 0058293 338.6507 021.0823 02.00570059 38778 NAVSTAR 55 (USA 178) 1 28361U 04023A 09183.15791424 -.00000106 +00000-0 +10000-3 0 00211 2 28361 055.5936 337.8405 0062146 168.4575 191.6851 02.00572430036834 NAVSTAR 56 (USA 180) 1 28474U 04045A 09184.15107896 .00000075 00000-0 10000-3 0 8981 2 28474 053.9266 216.6911 0090358 164.6229 195.7235 02.00563798 34211 NAVSTAR 57 (USA 183) 1 28874U 05038A 09184.00451783 .00000048 00000-0 10000-3 0 1588 2 28874 054.9959 158.4843 0046175 212.2725 147.4203 02.00560937 27630 NAVSTAR 58 (USA 190) 1 29486U 06042A 09181.62331457 -.00000089 +00000-0 +10000-3 0 04774 2 29486 055.7705 037.4860 0072465 293.7333 065.5513 02.00557374020282 NAVSTAR 59 (USA 192) 1 29601U 06052A 09183.06693722 -.00000061 +00000-0 +10000-3 0 04994 2 29601 055.4191 097.8274 0034631 316.5954 043.1298 02.00567727019229 NAVSTAR 60 (USA 196) 1 32260U 07047A 09182.36560410 -.00000106 +00000-0 +00000-0 0 02672 2 32260 054.7930 336.7030 0015571 325.8724 034.0234 02.00569398012602 NAVSTAR 61 (USA 199) 1 32384U 07062A 09183.19502526 +.00000059 +00000-0 +10000-3 0 02920 2 32384 055.0067 158.9886 0036561 283.1115 076.4631 02.00564532011345 NAVSTAR 62 (USA 201) 1 32711U 08012A 09182.78612349 -.00000086 +00000-0 +10000-3 0 01840 2 32711 055.4526 037.5472 0026486 169.8025 190.3019 02.00564748009545